| time (UTC) | temp C | wind direction | speed KPH | gust KPH | rain 1hr cm | rain 24hr cm | rain mn cm | humidity % | barometer mb |
| 20260504120124 | 6 | 313 | 6.4 | 11.3 | 0.00 | 0.00 | 0.00 | 68 | 1015.0 |
| 20260504081510 | 7 | 72 | 24.1 | 38.6 | 0.00 | 0.00 | 0.00 | 60 | 1014.2 |
| 20260504050016 | 12 | 57 | 33.8 | 49.9 | 0.00 | 0.00 | 0.00 | 40 | 1010.6 |
| 20260504044518 | 12 | 34 | 30.6 | 48.3 | 0.00 | 0.00 | 0.00 | 40 | 1010.3 |
| 20260504043013 | 13 | 63 | 27.4 | 38.6 | 0.00 | 0.00 | 0.00 | 40 | 1010.0 |
| 20260504041610 | 14 | 39 | 25.7 | 37.0 | 0.00 | 0.00 | 0.00 | 38 | 1009.5 |
| 20260504040007 | 14 | 59 | 19.3 | 29.0 | 0.00 | 0.00 | 0.00 | 37 | 1009.3 |
| 20260504034508 | 14 | 69 | 17.7 | 29.0 | 0.00 | 0.00 | 0.00 | 37 | 1009.0 |
| 20260504033004 | 14 | 49 | 17.7 | 29.0 | 0.00 | 0.00 | 0.00 | 38 | 1008.8 |
| 20260504031509 | 15 | 65 | 19.3 | 30.6 | 0.00 | 0.00 | 0.00 | 38 | 1008.3 |
| 20260504030118 | 15 | 72 | 24.1 | 33.8 | 0.00 | 0.00 | 0.00 | 38 | 1008.1 |
| 20260504024558 | 15 | 65 | 20.9 | 33.8 | 0.00 | 0.00 | 0.00 | 37 | 1007.9 |
| 20260504023058 | 16 | 62 | 17.7 | 24.1 | 0.00 | 0.00 | 0.00 | 33 | 1007.8 |
| 20260504021554 | 17 | 27 | 9.7 | 17.7 | 0.00 | 0.00 | 0.00 | 27 | 1007.9 |
| 20260504020055 | 18 | 355 | 4.8 | 17.7 | 0.00 | 0.00 | 0.00 | 26 | 1007.9 |
| 20260504014550 | 19 | 50 | 9.7 | 20.9 | 0.00 | 0.00 | 0.00 | 23 | 1008.1 |
| 20260504013052 | 20 | 343 | 14.5 | 20.9 | 0.00 | 0.00 | 0.00 | 23 | 1008.2 |
| 20260504011546 | 21 | 290 | 16.1 | 24.1 | 0.00 | 0.00 | 0.00 | 22 | 1008.1 |
| 20260504010053 | 21 | 342 | 9.7 | 25.7 | 0.00 | 0.00 | 0.00 | 22 | 1008.2 |
| 20260504004544 | 22 | 355 | 14.5 | 27.4 | 0.00 | 0.00 | 0.00 | 22 | 1008.3 |
| 20260504003038 | 22 | 338 | 12.9 | 25.7 | 0.00 | 0.00 | 0.00 | 21 | 1008.4 |
| 20260504001539 | 22 | 324 | 16.1 | 30.6 | 0.00 | 0.00 | 0.00 | 22 | 1008.6 |
| 20260504000033 | 22 | 52 | 12.9 | 25.7 | 0.00 | 0.00 | 0.00 | 22 | 1008.6 |
| 20260503234535 | 22 | 333 | 9.7 | 27.4 | 0.00 | 0.00 | 0.00 | 21 | 1008.6 |
| 20260503233028 | 22 | 333 | 16.1 | 37.0 | 0.00 | 0.00 | 0.00 | 21 | 1008.7 |
| 20260503231527 | 22 | 318 | 9.7 | 32.2 | 0.00 | 0.00 | 0.00 | 21 | 1008.8 |
| 20260503230029 | 22 | 333 | 9.7 | 32.2 | 0.00 | 0.00 | 0.00 | 20 | 1008.8 |
| 20260503224521 | 23 | 352 | 12.9 | 29.0 | 0.00 | 0.00 | 0.00 | 21 | 1009.0 |
| 20260503223019 | 22 | 345 | 17.7 | 32.2 | 0.00 | 0.00 | 0.00 | 21 | 1009.0 |
| 20260503221516 | 22 | 35 | 14.5 | 32.2 | 0.00 | 0.00 | 0.00 | 21 | 1009.2 |
| 20260503220020 | 23 | 297 | 17.7 | 30.6 | 0.00 | 0.00 | 0.00 | 21 | 1009.5 |
| 20260503214515 | 22 | 340 | 16.1 | 30.6 | 0.00 | 0.00 | 0.00 | 21 | 1009.7 |
| 20260503213002 | 22 | 285 | 12.9 | 30.6 | 0.00 | 0.00 | 0.00 | 21 | 1009.7 |
| 20260503211602 | 22 | 326 | 17.7 | 29.0 | 0.00 | 0.00 | 0.00 | 20 | 1010.1 |
| 20260503210056 | 22 | 311 | 12.9 | 27.4 | 0.00 | 0.00 | 0.00 | 22 | 1010.2 |
| 20260503204551 | 22 | 348 | 17.7 | 27.4 | 0.00 | 0.00 | 0.00 | 21 | 1010.6 |
| 20260503203048 | 21 | 333 | 19.3 | 27.4 | 0.00 | 0.00 | 0.00 | 23 | 1010.5 |
| 20260503201548 | 21 | 344 | 17.7 | 32.2 | 0.00 | 0.00 | 0.00 | 22 | 1010.8 |
| 20260503200040 | 21 | 323 | 19.3 | 32.2 | 0.00 | 0.00 | 0.00 | 23 | 1011.0 |
| 20260503194540 | 21 | 350 | 17.7 | 30.6 | 0.00 | 0.00 | 0.00 | 23 | 1011.1 |
| 20260503193031 | 21 | 323 | 16.1 | 25.7 | 0.00 | 0.00 | 0.00 | 25 | 1011.2 |
| 20260503191529 | 21 | 330 | 12.9 | 24.1 | 0.00 | 0.00 | 0.00 | 23 | 1011.3 |
| 20260503190037 | 20 | 322 | 16.1 | 25.7 | 0.00 | 0.00 | 0.00 | 24 | 1011.5 |
| 20260503184524 | 20 | 321 | 8.0 | 24.1 | 0.00 | 0.00 | 0.00 | 23 | 1011.4 |
| 20260503183021 | 20 | 309 | 16.1 | 25.7 | 0.00 | 0.00 | 0.00 | 24 | 1011.8 |
| 20260503181537 | 20 | 274 | 6.4 | 27.4 | 0.00 | 0.00 | 0.00 | 24 | 1011.9 |
| 20260503180024 | 20 | 318 | 12.9 | 24.1 | 0.00 | 0.00 | 0.00 | 26 | 1012.1 |
| 20260503174509 | 20 | 324 | 9.7 | 25.7 | 0.00 | 0.00 | 0.00 | 26 | 1012.3 |
| 20260503173006 | 20 | 1 | 16.1 | 22.5 | 0.00 | 0.00 | 0.00 | 25 | 1012.5 |
| 20260503171504 | 20 | 334 | 12.9 | 29.0 | 0.00 | 0.00 | 0.00 | 25 | 1012.5 |
| 20260503170112 | 20 | 51 | 11.3 | 29.0 | 0.00 | 0.00 | 0.00 | 26 | 1012.5 |